Regional Weather Roundup
Issued by NWS Goodland, KS

Home | Current Version | Previous Version | Text Only | Print | Product List | Glossary Off
Versions: 1 2 3 4 5 6 7 8 9 10 11 12 13 14 15 16 17 18 19 20 21 22 23 24 25 26 27 28 29 30 31 32 33 34 35 36 37 38 39 40 41 42 43 44 45 46 47 48 49 50

000
ASUS43 KGLD 102008
RWRGLD

GOODLAND FORECAST AREA HOURLY WEATHER ROUNDUP
NATIONAL WEATHER SERVICE GOODLAND KS
100 PM MST SAT DEC 10 2016

...OFFICIAL OBSERVATIONS...

CITY           SKY/WX    TMP DP  RH WIND       PRES   REMARKS
GOODLAND KS    CLOUDY    36  25  64 S13       29.80F
HILL CITY KS   CLOUDY    38  23  55 S14       29.95F
IMPERIAL NEB   CLOUDY    29  22  75 S12       29.84F WCI  19
MCCOOK NEB     CLOUDY    30  23  75 S15       29.88F WCI  19
AKRON CO       CLOUDY    36  25  64 VRB3      29.75F
BURLINGTON CO  CLOUDY    52  21  29 S12       29.79F
LIMON CO       CLOUDY    63  17  17 SW14      29.76F
$$

...UNOFFICIAL OBSERVATIONS...

CITY           SKY/WX    TMP DP  RH WIND       PRES   REMARKS
COLBY KS       SUNNY     34  28  80 SE16      29.86F
LENORA KS        N/A     35  32  89 MISG        N/A
NORTON KS      SUNNY     36  19  51 SE13G20   29.91F
SHARON SPRINGS   N/A     40  30  67 S16         N/A
TRENTON NEB      N/A     28  32 100 S9          N/A
KIT CARSON CO    N/A     50  26  39 MISG        N/A
YUMA CO        FAIR      28  23  80 W3        29.80S
$$



USA.gov is the U.S. government's official web portal to all federal, state and local government web resources and services.